owner,sensor,date,latitude,longitude,vertical_datum,wind_speed,wind_to_direction,wind_speed_of_gust,qcFlag 
ENP,ioos.station.NOAA.NDBC:WRBF1:1,2017-03-01T00:00:00Z,25.0720,-80.7350,1.0,4.6,60.0,-9999.0,'1111122,1111122,1111122' 
ENP,ioos.station.NOAA.NDBC:WRBF1:1,2017-03-01T01:00:00Z,25.0720,-80.7350,1.0,5.7,50.0,-9999.0,'1111122,1111122,1111122' 
ENP,ioos.station.NOAA.NDBC:WRBF1:1,2017-03-01T04:00:00Z,25.0720,-80.7350,1.0,6.2,50.0,-9999.0,'1111122,1111122,1111122' 
ENP,ioos.station.NOAA.NDBC:WRBF1:1,2017-03-01T06:00:00Z,25.0720,-80.7350,1.0,5.1,60.0,-9999.0,'1111122,1111122,1111122' 
ENP,ioos.station.NOAA.NDBC:WRBF1:1,2017-03-01T07:00:00Z,25.0720,-80.7350,1.0,5.7,60.0,-9999.0,'1111122,1111122,1111122' 
ENP,ioos.station.NOAA.NDBC:WRBF1:1,2017-03-01T08:00:00Z,25.0720,-80.7350,1.0,5.7,60.0,-9999.0,'1111122,1111122,1111122' 
ENP,ioos.station.NOAA.NDBC:WRBF1:1,2017-03-01T09:00:00Z,25.0720,-80.7350,1.0,5.7,70.0,-9999.0,'1111122,1111122,1111122' 
ENP,ioos.station.NOAA.NDBC:WRBF1:1,2017-03-01T11:00:00Z,25.0720,-80.7350,1.0,4.6,80.0,-9999.0,'1111122,1111122,1111122' 
ENP,ioos.station.NOAA.NDBC:WRBF1:1,2017-03-01T12:00:00Z,25.0720,-80.7350,1.0,4.6,80.0,-9999.0,'1111122,1111122,1111122' 
ENP,ioos.station.NOAA.NDBC:WRBF1:1,2017-03-01T13:00:00Z,25.0720,-80.7350,1.0,4.1,80.0,-9999.0,'1111122,1111122,1111122' 
ENP,ioos.station.NOAA.NDBC:WRBF1:1,2017-03-01T14:00:00Z,25.0720,-80.7350,1.0,4.1,80.0,-9999.0,'1111122,1111122,1111122' 
ENP,ioos.station.NOAA.NDBC:WRBF1:1,2017-03-01T15:00:00Z,25.0720,-80.7350,1.0,3.1,90.0,-9999.0,'1111122,1111122,1111122' 
ENP,ioos.station.NOAA.NDBC:WRBF1:1,2017-03-01T16:00:00Z,25.0720,-80.7350,1.0,3.1,90.0,-9999.0,'1111122,1111122,1111122' 
ENP,ioos.station.NOAA.NDBC:WRBF1:1,2017-03-01T17:00:00Z,25.0720,-80.7350,1.0,1.0,80.0,-9999.0,'1111122,1111122,1111122' 
ENP,ioos.station.NOAA.NDBC:WRBF1:1,2017-03-01T18:00:00Z,25.0720,-80.7350,1.0,1.0,80.0,-9999.0,'1111122,1111122,1111122' 
ENP,ioos.station.NOAA.NDBC:WRBF1:1,2017-03-01T19:00:00Z,25.0720,-80.7350,1.0,1.0,90.0,-9999.0,'1111122,1111122,1111122' 
ENP,ioos.station.NOAA.NDBC:WRBF1:1,2017-03-01T20:00:00Z,25.0720,-80.7350,1.0,1.5,100.0,-9999.0,'1111122,1111122,1111122' 
ENP,ioos.station.NOAA.NDBC:WRBF1:1,2017-03-01T21:00:00Z,25.0720,-80.7350,1.0,2.6,110.0,-9999.0,'1111122,1111122,1111122' 
ENP,ioos.station.NOAA.NDBC:WRBF1:1,2017-03-01T23:00:00Z,25.0720,-80.7350,1.0,2.6,100.0,-9999.0,'1111122,1111122,1111122' 
ENP,ioos.station.NOAA.NDBC:WRBF1:1,2017-03-02T00:00:00Z,25.0720,-80.7350,1.0,2.6,90.0,-9999.0,'1111122,1111122,1111122' 
ENP,ioos.station.NOAA.NDBC:WRBF1:1,2017-03-02T01:00:00Z,25.0720,-80.7350,1.0,2.6,80.0,-9999.0,'1111122,1111122,1111122' 
ENP,ioos.station.NOAA.NDBC:WRBF1:1,2017-03-02T04:00:00Z,25.0720,-80.7350,1.0,2.1,100.0,-9999.0,'1111122,1111122,1111122' 
ENP,ioos.station.NOAA.NDBC:WRBF1:1,2017-03-02T07:00:00Z,25.0720,-80.7350,1.0,1.5,120.0,-9999.0,'1111122,1111122,1111122' 
ENP,ioos.station.NOAA.NDBC:WRBF1:1,2017-03-02T08:00:00Z,25.0720,-80.7350,1.0,1.5,120.0,-9999.0,'1111122,1111122,1111122' 
ENP,ioos.station.NOAA.NDBC:WRBF1:1,2017-03-02T09:00:00Z,25.0720,-80.7350,1.0,1.5,130.0,-9999.0,'1111122,1111122,1111122' 
ENP,ioos.station.NOAA.NDBC:WRBF1:1,2017-03-02T11:00:00Z,25.0720,-80.7350,1.0,1.0,120.0,-9999.0,'1111122,1111122,1111122' 
ENP,ioos.station.NOAA.NDBC:WRBF1:1,2017-03-02T12:00:00Z,25.0720,-80.7350,1.0,1.0,120.0,-9999.0,'1111122,1111122,1111122' 
ENP,ioos.station.NOAA.NDBC:WRBF1:1,2017-03-02T13:00:00Z,25.0720,-80.7350,1.0,1.0,120.0,-9999.0,'1111122,1111122,1111122' 
ENP,ioos.station.NOAA.NDBC:WRBF1:1,2017-03-02T14:00:00Z,25.0720,-80.7350,1.0,0.5,100.0,-9999.0,'1111122,1111122,1111122' 
ENP,ioos.station.NOAA.NDBC:WRBF1:1,2017-03-02T17:00:00Z,25.0720,-80.7350,1.0,1.5,220.0,-9999.0,'1111122,1111122,1111122' 
ENP,ioos.station.NOAA.NDBC:WRBF1:1,2017-03-03T15:00:00Z,25.0720,-80.7350,1.0,7.7,340.0,-9999.0,'1111122,1111122,1111122' 
ENP,ioos.station.NOAA.NDBC:WRBF1:1,2017-03-03T16:00:00Z,25.0720,-80.7350,1.0,6.7,340.0,-9999.0,'1111122,1111122,1111122' 
ENP,ioos.station.NOAA.NDBC:WRBF1:1,2017-03-03T17:00:00Z,25.0720,-80.7350,1.0,6.7,10.0,-9999.0,'1111122,1111122,1111122' 
ENP,ioos.station.NOAA.NDBC:WRBF1:1,2017-03-03T18:00:00Z,25.0720,-80.7350,1.0,3.6,20.0,-9999.0,'1111122,1111122,1111122' 
ENP,ioos.station.NOAA.NDBC:WRBF1:1,2017-03-03T19:00:00Z,25.0720,-80.7350,1.0,5.1,50.0,-9999.0,'1111122,1111122,1111122' 
ENP,ioos.station.NOAA.NDBC:WRBF1:1,2017-03-03T20:00:00Z,25.0720,-80.7350,1.0,5.1,30.0,-9999.0,'1111122,1111122,1111122' 
ENP,ioos.station.NOAA.NDBC:WRBF1:1,2017-03-03T21:00:00Z,25.0720,-80.7350,1.0,10.8,20.0,-9999.0,'1111122,1111122,1111122' 
ENP,ioos.station.NOAA.NDBC:WRBF1:1,2017-03-03T23:00:00Z,25.0720,-80.7350,1.0,11.8,20.0,-9999.0,'1111122,1111122,1111122' 
ENP,ioos.station.NOAA.NDBC:WRBF1:1,2017-03-04T00:00:00Z,25.0720,-80.7350,1.0,10.8,20.0,-9999.0,'1111122,1111122,1111122' 
ENP,ioos.station.NOAA.NDBC:WRBF1:1,2017-03-04T01:00:00Z,25.0720,-80.7350,1.0,11.3,10.0,-9999.0,'1111122,1111122,1111122' 
ENP,ioos.station.NOAA.NDBC:WRBF1:1,2017-03-04T04:00:00Z,25.0720,-80.7350,1.0,7.7,360.0,-9999.0,'1111122,1111122,1111122' 
ENP,ioos.station.NOAA.NDBC:WRBF1:1,2017-03-04T07:00:00Z,25.0720,-80.7350,1.0,11.3,30.0,-9999.0,'1111122,1111122,1111122' 
ENP,ioos.station.NOAA.NDBC:WRBF1:1,2017-03-04T08:00:00Z,25.0720,-80.7350,1.0,11.3,30.0,-9999.0,'1111122,1111122,1111122' 
ENP,ioos.station.NOAA.NDBC:WRBF1:1,2017-03-04T09:00:00Z,25.0720,-80.7350,1.0,10.3,30.0,-9999.0,'1111122,1111122,1111122' 
ENP,ioos.station.NOAA.NDBC:WRBF1:1,2017-03-04T11:00:00Z,25.0720,-80.7350,1.0,9.8,30.0,-9999.0,'1111122,1111122,1111122' 
ENP,ioos.station.NOAA.NDBC:WRBF1:1,2017-03-04T12:00:00Z,25.0720,-80.7350,1.0,10.3,30.0,-9999.0,'1111122,1111122,1111122' 
ENP,ioos.station.NOAA.NDBC:WRBF1:1,2017-03-04T13:00:00Z,25.0720,-80.7350,1.0,9.8,30.0,-9999.0,'1111122,1111122,1111122' 
ENP,ioos.station.NOAA.NDBC:WRBF1:1,2017-03-04T14:00:00Z,25.0720,-80.7350,1.0,9.8,30.0,-9999.0,'1111122,1111122,1111122' 
ENP,ioos.station.NOAA.NDBC:WRBF1:1,2017-03-04T15:00:00Z,25.0720,-80.7350,1.0,9.3,40.0,-9999.0,'1111122,1111122,1111122' 
ENP,ioos.station.NOAA.NDBC:WRBF1:1,2017-03-04T16:00:00Z,25.0720,-80.7350,1.0,10.3,40.0,-9999.0,'1111122,1111122,1111122' 
ENP,ioos.station.NOAA.NDBC:WRBF1:1,2017-03-04T17:00:00Z,25.0720,-80.7350,1.0,7.7,30.0,-9999.0,'1111122,1111122,1111122' 
ENP,ioos.station.NOAA.NDBC:WRBF1:1,2017-03-04T18:00:00Z,25.0720,-80.7350,1.0,7.2,30.0,-9999.0,'1111122,1111122,1111122' 
ENP,ioos.station.NOAA.NDBC:WRBF1:1,2017-03-04T19:00:00Z,25.0720,-80.7350,1.0,11.3,40.0,-9999.0,'1111122,1111122,1111122' 
ENP,ioos.station.NOAA.NDBC:WRBF1:1,2017-03-04T20:00:00Z,25.0720,-80.7350,1.0,11.3,40.0,-9999.0,'1111122,1111122,1111122' 
ENP,ioos.station.NOAA.NDBC:WRBF1:1,2017-03-04T21:00:00Z,25.0720,-80.7350,1.0,5.7,40.0,-9999.0,'1111122,1111122,1111122' 
ENP,ioos.station.NOAA.NDBC:WRBF1:1,2017-03-04T22:00:00Z,25.0720,-80.7350,1.0,8.2,40.0,-9999.0,'1111122,1111122,1111122' 
ENP,ioos.station.NOAA.NDBC:WRBF1:1,2017-03-04T23:00:00Z,25.0720,-80.7350,1.0,10.8,30.0,-9999.0,'1111122,1111122,1111122' 
ENP,ioos.station.NOAA.NDBC:WRBF1:1,2017-03-05T00:00:00Z,25.0720,-80.7350,1.0,10.3,30.0,-9999.0,'1111122,1111122,1111122' 
ENP,ioos.station.NOAA.NDBC:WRBF1:1,2017-03-05T01:00:00Z,25.0720,-80.7350,1.0,9.8,40.0,-9999.0,'1111122,1111122,1111122' 
ENP,ioos.station.NOAA.NDBC:WRBF1:1,2017-03-05T04:00:00Z,25.0720,-80.7350,1.0,8.8,40.0,-9999.0,'1111122,1111122,1111122' 
ENP,ioos.station.NOAA.NDBC:WRBF1:1,2017-03-05T07:00:00Z,25.0720,-80.7350,1.0,9.8,40.0,-9999.0,'1111122,1111122,1111122' 
ENP,ioos.station.NOAA.NDBC:WRBF1:1,2017-03-05T08:00:00Z,25.0720,-80.7350,1.0,8.8,40.0,-9999.0,'1111122,1111122,1111122' 
ENP,ioos.station.NOAA.NDBC:WRBF1:1,2017-03-05T09:00:00Z,25.0720,-80.7350,1.0,9.3,50.0,-9999.0,'1111122,1111122,1111122' 
ENP,ioos.station.NOAA.NDBC:WRBF1:1,2017-03-05T11:00:00Z,25.0720,-80.7350,1.0,7.7,50.0,-9999.0,'1111122,1111122,1111122' 
ENP,ioos.station.NOAA.NDBC:WRBF1:1,2017-03-05T12:00:00Z,25.0720,-80.7350,1.0,8.2,50.0,-9999.0,'1111122,1111122,1111122' 
ENP,ioos.station.NOAA.NDBC:WRBF1:1,2017-03-05T13:00:00Z,25.0720,-80.7350,1.0,9.3,50.0,-9999.0,'1111122,1111122,1111122' 
ENP,ioos.station.NOAA.NDBC:WRBF1:1,2017-03-05T14:00:00Z,25.0720,-80.7350,1.0,8.2,40.0,-9999.0,'1111122,1111122,1111122' 
ENP,ioos.station.NOAA.NDBC:WRBF1:1,2017-03-05T15:00:00Z,25.0720,-80.7350,1.0,10.8,40.0,-9999.0,'1111122,1111122,1111122' 
ENP,ioos.station.NOAA.NDBC:WRBF1:1,2017-03-05T16:00:00Z,25.0720,-80.7350,1.0,11.3,40.0,-9999.0,'1111122,1111122,1111122' 
ENP,ioos.station.NOAA.NDBC:WRBF1:1,2017-03-05T17:00:00Z,25.0720,-80.7350,1.0,4.1,40.0,-9999.0,'1111122,1111122,1111122' 
ENP,ioos.station.NOAA.NDBC:WRBF1:1,2017-03-05T18:00:00Z,25.0720,-80.7350,1.0,11.3,50.0,-9999.0,'1111122,1111122,1111122' 
ENP,ioos.station.NOAA.NDBC:WRBF1:1,2017-03-05T19:00:00Z,25.0720,-80.7350,1.0,11.3,50.0,-9999.0,'1111122,1111122,1111122' 
ENP,ioos.station.NOAA.NDBC:WRBF1:1,2017-03-05T20:00:00Z,25.0720,-80.7350,1.0,11.3,40.0,-9999.0,'1111122,1111122,1111122' 
ENP,ioos.station.NOAA.NDBC:WRBF1:1,2017-03-05T21:00:00Z,25.0720,-80.7350,1.0,11.3,50.0,-9999.0,'1111122,1111122,1111122' 
ENP,ioos.station.NOAA.NDBC:WRBF1:1,2017-03-05T22:00:00Z,25.0720,-80.7350,1.0,8.8,50.0,-9999.0,'1111122,1111122,1111122' 
ENP,ioos.station.NOAA.NDBC:WRBF1:1,2017-03-05T23:00:00Z,25.0720,-80.7350,1.0,10.8,40.0,-9999.0,'1111122,1111122,1111122' 
ENP,ioos.station.NOAA.NDBC:WRBF1:1,2017-03-06T00:00:00Z,25.0720,-80.7350,1.0,9.8,50.0,-9999.0,'1111122,1111122,1111122' 
ENP,ioos.station.NOAA.NDBC:WRBF1:1,2017-03-06T01:00:00Z,25.0720,-80.7350,1.0,9.3,40.0,-9999.0,'1111122,1111122,1111122' 
ENP,ioos.station.NOAA.NDBC:WRBF1:1,2017-03-06T04:00:00Z,25.0720,-80.7350,1.0,8.8,50.0,-9999.0,'1111122,1111122,1111122' 
ENP,ioos.station.NOAA.NDBC:WRBF1:1,2017-03-06T06:00:00Z,25.0720,-80.7350,1.0,9.3,50.0,-9999.0,'1111122,1111122,1111122' 
ENP,ioos.station.NOAA.NDBC:WRBF1:1,2017-03-06T07:00:00Z,25.0720,-80.7350,1.0,8.8,50.0,-9999.0,'1111122,1111122,1111122' 
ENP,ioos.station.NOAA.NDBC:WRBF1:1,2017-03-06T08:00:00Z,25.0720,-80.7350,1.0,8.2,50.0,-9999.0,'1111122,1111122,1111122' 
ENP,ioos.station.NOAA.NDBC:WRBF1:1,2017-03-06T09:00:00Z,25.0720,-80.7350,1.0,7.7,50.0,-9999.0,'1111122,1111122,1111122' 
ENP,ioos.station.NOAA.NDBC:WRBF1:1,2017-03-06T10:00:00Z,25.0720,-80.7350,1.0,7.7,50.0,-9999.0,'1111122,1111122,1111122' 
ENP,ioos.station.NOAA.NDBC:WRBF1:1,2017-03-06T12:00:00Z,25.0720,-80.7350,1.0,8.2,40.0,-9999.0,'1111122,1111122,1111122' 
ENP,ioos.station.NOAA.NDBC:WRBF1:1,2017-03-06T13:00:00Z,25.0720,-80.7350,1.0,7.7,40.0,-9999.0,'1111122,1111122,1111122' 
ENP,ioos.station.NOAA.NDBC:WRBF1:1,2017-03-06T14:00:00Z,25.0720,-80.7350,1.0,8.2,50.0,-9999.0,'1111122,1111122,1111122' 
ENP,ioos.station.NOAA.NDBC:WRBF1:1,2017-03-06T15:00:00Z,25.0720,-80.7350,1.0,4.6,50.0,-9999.0,'1111122,1111122,1111122' 
ENP,ioos.station.NOAA.NDBC:WRBF1:1,2017-03-06T16:00:00Z,25.0720,-80.7350,1.0,3.6,60.0,-9999.0,'1111122,1111122,1111122' 
ENP,ioos.station.NOAA.NDBC:WRBF1:1,2017-03-06T17:00:00Z,25.0720,-80.7350,1.0,3.1,60.0,-9999.0,'1111122,1111122,1111122' 
ENP,ioos.station.NOAA.NDBC:WRBF1:1,2017-03-06T18:00:00Z,25.0720,-80.7350,1.0,7.2,50.0,-9999.0,'1111122,1111122,1111122' 
ENP,ioos.station.NOAA.NDBC:WRBF1:1,2017-03-06T19:00:00Z,25.0720,-80.7350,1.0,3.1,50.0,-9999.0,'1111122,1111122,1111122' 
ENP,ioos.station.NOAA.NDBC:WRBF1:1,2017-03-06T20:00:00Z,25.0720,-80.7350,1.0,7.2,60.0,-9999.0,'1111122,1111122,1111122' 
ENP,ioos.station.NOAA.NDBC:WRBF1:1,2017-03-06T21:00:00Z,25.0720,-80.7350,1.0,4.1,50.0,-9999.0,'1111122,1111122,1111122' 
ENP,ioos.station.NOAA.NDBC:WRBF1:1,2017-03-06T22:00:00Z,25.0720,-80.7350,1.0,7.2,60.0,-9999.0,'1111122,1111122,1111122' 
ENP,ioos.station.NOAA.NDBC:WRBF1:1,2017-03-06T23:00:00Z,25.0720,-80.7350,1.0,7.2,50.0,-9999.0,'1111122,1111122,1111122' 
ENP,ioos.station.NOAA.NDBC:WRBF1:1,2017-03-07T00:00:00Z,25.0720,-80.7350,1.0,7.7,50.0,-9999.0,'1111122,1111122,1111122' 
ENP,ioos.station.NOAA.NDBC:WRBF1:1,2017-03-07T01:00:00Z,25.0720,-80.7350,1.0,8.2,50.0,-9999.0,'1111122,1111122,1111122' 
ENP,ioos.station.NOAA.NDBC:WRBF1:1,2017-03-07T04:00:00Z,25.0720,-80.7350,1.0,5.7,70.0,-9999.0,'1111122,1111122,1111122' 
ENP,ioos.station.NOAA.NDBC:WRBF1:1,2017-03-07T07:00:00Z,25.0720,-80.7350,1.0,5.1,70.0,-9999.0,'1111122,1111122,1111122' 
ENP,ioos.station.NOAA.NDBC:WRBF1:1,2017-03-07T08:00:00Z,25.0720,-80.7350,1.0,5.1,70.0,-9999.0,'1111122,1111122,1111122' 
ENP,ioos.station.NOAA.NDBC:WRBF1:1,2017-03-07T09:00:00Z,25.0720,-80.7350,1.0,4.6,70.0,-9999.0,'1111122,1111122,1111122' 
ENP,ioos.station.NOAA.NDBC:WRBF1:1,2017-03-07T11:00:00Z,25.0720,-80.7350,1.0,4.6,70.0,-9999.0,'1111122,1111122,1111122' 
ENP,ioos.station.NOAA.NDBC:WRBF1:1,2017-03-07T12:00:00Z,25.0720,-80.7350,1.0,4.1,70.0,-9999.0,'1111122,1111122,1111122' 
ENP,ioos.station.NOAA.NDBC:WRBF1:1,2017-03-07T13:00:00Z,25.0720,-80.7350,1.0,4.1,70.0,-9999.0,'1111122,1111122,1111122' 
ENP,ioos.station.NOAA.NDBC:WRBF1:1,2017-03-07T14:00:00Z,25.0720,-80.7350,1.0,3.6,80.0,-9999.0,'1111122,1111122,1111122' 
ENP,ioos.station.NOAA.NDBC:WRBF1:1,2017-03-07T15:00:00Z,25.0720,-80.7350,1.0,1.5,70.0,-9999.0,'1111122,1111122,1111122' 
ENP,ioos.station.NOAA.NDBC:WRBF1:1,2017-03-07T16:00:00Z,25.0720,-80.7350,1.0,3.1,80.0,-9999.0,'1111122,1111122,1111122' 
ENP,ioos.station.NOAA.NDBC:WRBF1:1,2017-03-07T17:00:00Z,25.0720,-80.7350,1.0,5.7,80.0,-9999.0,'1111122,1111122,1111122' 
ENP,ioos.station.NOAA.NDBC:WRBF1:1,2017-03-07T18:00:00Z,25.0720,-80.7350,1.0,6.2,80.0,-9999.0,'1111122,1111122,1111122' 
ENP,ioos.station.NOAA.NDBC:WRBF1:1,2017-03-07T19:00:00Z,25.0720,-80.7350,1.0,4.1,80.0,-9999.0,'1111122,1111122,1111122' 
ENP,ioos.station.NOAA.NDBC:WRBF1:1,2017-03-07T20:00:00Z,25.0720,-80.7350,1.0,4.6,70.0,-9999.0,'1111122,1111122,1111122' 
ENP,ioos.station.NOAA.NDBC:WRBF1:1,2017-03-07T21:00:00Z,25.0720,-80.7350,1.0,6.2,60.0,-9999.0,'1111122,1111122,1111122' 
ENP,ioos.station.NOAA.NDBC:WRBF1:1,2017-03-07T23:00:00Z,25.0720,-80.7350,1.0,5.7,70.0,-9999.0,'1111122,1111122,1111122' 
ENP,ioos.station.NOAA.NDBC:WRBF1:1,2017-03-08T00:00:00Z,25.0720,-80.7350,1.0,4.6,80.0,-9999.0,'1111122,1111122,1111122' 
ENP,ioos.station.NOAA.NDBC:WRBF1:1,2017-03-08T01:00:00Z,25.0720,-80.7350,1.0,4.6,70.0,-9999.0,'1111122,1111122,1111122' 
ENP,ioos.station.NOAA.NDBC:WRBF1:1,2017-03-08T04:00:00Z,25.0720,-80.7350,1.0,4.1,80.0,-9999.0,'1111122,1111122,1111122' 
ENP,ioos.station.NOAA.NDBC:WRBF1:1,2017-03-08T07:00:00Z,25.0720,-80.7350,1.0,4.1,70.0,-9999.0,'1111122,1111122,1111122' 
ENP,ioos.station.NOAA.NDBC:WRBF1:1,2017-03-08T08:00:00Z,25.0720,-80.7350,1.0,3.6,70.0,-9999.0,'1111122,1111122,1111122' 
ENP,ioos.station.NOAA.NDBC:WRBF1:1,2017-03-08T09:00:00Z,25.0720,-80.7350,1.0,3.1,70.0,-9999.0,'1111122,1111122,1111122' 
ENP,ioos.station.NOAA.NDBC:WRBF1:1,2017-03-08T11:00:00Z,25.0720,-80.7350,1.0,4.1,50.0,-9999.0,'1111122,1111122,1111122' 
ENP,ioos.station.NOAA.NDBC:WRBF1:1,2017-03-08T12:00:00Z,25.0720,-80.7350,1.0,4.6,80.0,-9999.0,'1111122,1111122,1111122' 
ENP,ioos.station.NOAA.NDBC:WRBF1:1,2017-03-08T13:00:00Z,25.0720,-80.7350,1.0,3.6,90.0,-9999.0,'1111122,1111122,1111122' 
ENP,ioos.station.NOAA.NDBC:WRBF1:1,2017-03-08T14:00:00Z,25.0720,-80.7350,1.0,3.1,80.0,-9999.0,'1111122,1111122,1111122' 
ENP,ioos.station.NOAA.NDBC:WRBF1:1,2017-03-08T15:00:00Z,25.0720,-80.7350,1.0,2.1,70.0,-9999.0,'1111122,1111122,1111122' 
ENP,ioos.station.NOAA.NDBC:WRBF1:1,2017-03-08T16:00:00Z,25.0720,-80.7350,1.0,1.5,70.0,-9999.0,'1111122,1111122,1111122' 
ENP,ioos.station.NOAA.NDBC:WRBF1:1,2017-03-08T17:00:00Z,25.0720,-80.7350,1.0,1.5,70.0,-9999.0,'1111122,1111122,1111122' 
ENP,ioos.station.NOAA.NDBC:WRBF1:1,2017-03-08T18:00:00Z,25.0720,-80.7350,1.0,2.6,70.0,-9999.0,'1111122,1111122,1111122' 
ENP,ioos.station.NOAA.NDBC:WRBF1:1,2017-03-08T19:00:00Z,25.0720,-80.7350,1.0,2.1,80.0,-9999.0,'1111122,1111122,1111122' 
ENP,ioos.station.NOAA.NDBC:WRBF1:1,2017-03-08T20:00:00Z,25.0720,-80.7350,1.0,3.1,80.0,-9999.0,'1111122,1111122,1111122' 
ENP,ioos.station.NOAA.NDBC:WRBF1:1,2017-03-08T21:00:00Z,25.0720,-80.7350,1.0,4.1,80.0,-9999.0,'1111122,1111122,1111122' 
ENP,ioos.station.NOAA.NDBC:WRBF1:1,2017-03-08T22:00:00Z,25.0720,-80.7350,1.0,3.6,80.0,-9999.0,'1111122,1111122,1111122' 
ENP,ioos.station.NOAA.NDBC:WRBF1:1,2017-03-08T23:00:00Z,25.0720,-80.7350,1.0,3.6,80.0,-9999.0,'1111122,1111122,1111122' 
ENP,ioos.station.NOAA.NDBC:WRBF1:1,2017-03-09T00:00:00Z,25.0720,-80.7350,1.0,3.6,70.0,-9999.0,'1111122,1111122,1111122' 
ENP,ioos.station.NOAA.NDBC:WRBF1:1,2017-03-09T01:00:00Z,25.0720,-80.7350,1.0,4.1,50.0,-9999.0,'1111122,1111122,1111122' 
ENP,ioos.station.NOAA.NDBC:WRBF1:1,2017-03-09T04:00:00Z,25.0720,-80.7350,1.0,5.1,50.0,-9999.0,'1111122,1111122,1111122' 
ENP,ioos.station.NOAA.NDBC:WRBF1:1,2017-03-09T07:00:00Z,25.0720,-80.7350,1.0,3.6,80.0,-9999.0,'1111122,1111122,1111122' 
ENP,ioos.station.NOAA.NDBC:WRBF1:1,2017-03-09T08:00:00Z,25.0720,-80.7350,1.0,3.6,60.0,-9999.0,'1111122,1111122,1111122' 
ENP,ioos.station.NOAA.NDBC:WRBF1:1,2017-03-09T09:00:00Z,25.0720,-80.7350,1.0,3.1,60.0,-9999.0,'1111122,1111122,1111122' 
ENP,ioos.station.NOAA.NDBC:WRBF1:1,2017-03-09T11:00:00Z,25.0720,-80.7350,1.0,4.6,360.0,-9999.0,'1111122,1111122,1111122' 
ENP,ioos.station.NOAA.NDBC:WRBF1:1,2017-03-09T12:00:00Z,25.0720,-80.7350,1.0,3.6,10.0,-9999.0,'1111122,1111122,1111122' 
ENP,ioos.station.NOAA.NDBC:WRBF1:1,2017-03-09T13:00:00Z,25.0720,-80.7350,1.0,3.6,360.0,-9999.0,'1111122,1111122,1111122' 
ENP,ioos.station.NOAA.NDBC:WRBF1:1,2017-03-09T14:00:00Z,25.0720,-80.7350,1.0,1.5,10.0,-9999.0,'1111122,1111122,1111122' 
ENP,ioos.station.NOAA.NDBC:WRBF1:1,2017-03-09T15:00:00Z,25.0720,-80.7350,1.0,2.6,40.0,-9999.0,'1111122,1111122,1111122' 
ENP,ioos.station.NOAA.NDBC:WRBF1:1,2017-03-09T16:00:00Z,25.0720,-80.7350,1.0,2.1,70.0,-9999.0,'1111122,1111122,1111122' 
ENP,ioos.station.NOAA.NDBC:WRBF1:1,2017-03-09T17:00:00Z,25.0720,-80.7350,1.0,1.5,60.0,-9999.0,'1111122,1111122,1111122' 
ENP,ioos.station.NOAA.NDBC:WRBF1:1,2017-03-09T18:00:00Z,25.0720,-80.7350,1.0,1.5,60.0,-9999.0,'1111122,1111122,1111122' 
ENP,ioos.station.NOAA.NDBC:WRBF1:1,2017-03-09T19:00:00Z,25.0720,-80.7350,1.0,1.5,70.0,-9999.0,'1111122,1111122,1111122' 
ENP,ioos.station.NOAA.NDBC:WRBF1:1,2017-03-09T20:00:00Z,25.0720,-80.7350,1.0,1.5,80.0,-9999.0,'1111122,1111122,1111122' 
ENP,ioos.station.NOAA.NDBC:WRBF1:1,2017-03-09T21:00:00Z,25.0720,-80.7350,1.0,3.6,80.0,-9999.0,'1111122,1111122,1111122' 
ENP,ioos.station.NOAA.NDBC:WRBF1:1,2017-03-09T22:00:00Z,25.0720,-80.7350,1.0,4.6,80.0,-9999.0,'1111122,1111122,1111122' 
ENP,ioos.station.NOAA.NDBC:WRBF1:1,2017-03-09T23:00:00Z,25.0720,-80.7350,1.0,1.0,80.0,-9999.0,'1111122,1111122,1111122' 
ENP,ioos.station.NOAA.NDBC:WRBF1:1,2017-03-10T00:00:00Z,25.0720,-80.7350,1.0,3.6,70.0,-9999.0,'1111122,1111122,1111122' 
ENP,ioos.station.NOAA.NDBC:WRBF1:1,2017-03-10T01:00:00Z,25.0720,-80.7350,1.0,4.1,70.0,-9999.0,'1111122,1111122,1111122' 
ENP,ioos.station.NOAA.NDBC:WRBF1:1,2017-03-10T07:00:00Z,25.0720,-80.7350,1.0,2.1,60.0,-9999.0,'1111122,1111122,1111122' 
ENP,ioos.station.NOAA.NDBC:WRBF1:1,2017-03-10T08:00:00Z,25.0720,-80.7350,1.0,2.1,70.0,-9999.0,'1111122,1111122,1111122' 
ENP,ioos.station.NOAA.NDBC:WRBF1:1,2017-03-10T09:00:00Z,25.0720,-80.7350,1.0,2.6,10.0,-9999.0,'1111122,1111122,1111122' 
ENP,ioos.station.NOAA.NDBC:WRBF1:1,2017-03-10T11:00:00Z,25.0720,-80.7350,1.0,3.6,350.0,-9999.0,'1111122,1111122,1111122' 
ENP,ioos.station.NOAA.NDBC:WRBF1:1,2017-03-10T12:00:00Z,25.0720,-80.7350,1.0,3.6,350.0,-9999.0,'1111122,1111122,1111122' 
ENP,ioos.station.NOAA.NDBC:WRBF1:1,2017-03-10T13:00:00Z,25.0720,-80.7350,1.0,4.1,350.0,-9999.0,'1111122,1111122,1111122' 
ENP,ioos.station.NOAA.NDBC:WRBF1:1,2017-03-10T14:00:00Z,25.0720,-80.7350,1.0,4.1,350.0,-9999.0,'1111122,1111122,1111122' 
ENP,ioos.station.NOAA.NDBC:WRBF1:1,2017-03-10T15:00:00Z,25.0720,-80.7350,1.0,3.6,340.0,-9999.0,'1111122,1111122,1111122' 
ENP,ioos.station.NOAA.NDBC:WRBF1:1,2017-03-10T16:00:00Z,25.0720,-80.7350,1.0,2.6,350.0,-9999.0,'1111122,1111122,1111122' 
ENP,ioos.station.NOAA.NDBC:WRBF1:1,2017-03-10T17:00:00Z,25.0720,-80.7350,1.0,1.5,320.0,-9999.0,'1111122,1111122,1111122' 
ENP,ioos.station.NOAA.NDBC:WRBF1:1,2017-03-10T19:00:00Z,25.0720,-80.7350,1.0,1.5,170.0,-9999.0,'1111122,1111122,1111122' 
ENP,ioos.station.NOAA.NDBC:WRBF1:1,2017-03-10T20:00:00Z,25.0720,-80.7350,1.0,1.0,170.0,-9999.0,'1111122,1111122,1111122' 
ENP,ioos.station.NOAA.NDBC:WRBF1:1,2017-03-10T21:00:00Z,25.0720,-80.7350,1.0,3.6,210.0,-9999.0,'1111122,1111122,1111122' 
ENP,ioos.station.NOAA.NDBC:WRBF1:1,2017-03-10T22:00:00Z,25.0720,-80.7350,1.0,4.1,210.0,-9999.0,'1111122,1111122,1111122' 
ENP,ioos.station.NOAA.NDBC:WRBF1:1,2017-03-10T23:00:00Z,25.0720,-80.7350,1.0,1.5,230.0,-9999.0,'1111122,1111122,1111122' 
ENP,ioos.station.NOAA.NDBC:WRBF1:1,2017-03-11T00:00:00Z,25.0720,-80.7350,1.0,4.6,210.0,-9999.0,'1111122,1111122,1111122' 
ENP,ioos.station.NOAA.NDBC:WRBF1:1,2017-03-11T01:00:00Z,25.0720,-80.7350,1.0,2.1,270.0,-9999.0,'1111122,1111122,1111122' 
ENP,ioos.station.NOAA.NDBC:WRBF1:1,2017-03-11T07:00:00Z,25.0720,-80.7350,1.0,5.7,320.0,-9999.0,'1111122,1111122,1111122' 
ENP,ioos.station.NOAA.NDBC:WRBF1:1,2017-03-11T08:00:00Z,25.0720,-80.7350,1.0,5.7,310.0,-9999.0,'1111122,1111122,1111122' 
ENP,ioos.station.NOAA.NDBC:WRBF1:1,2017-03-11T09:00:00Z,25.0720,-80.7350,1.0,6.7,320.0,-9999.0,'1111122,1111122,1111122' 
ENP,ioos.station.NOAA.NDBC:WRBF1:1,2017-03-11T11:00:00Z,25.0720,-80.7350,1.0,6.7,340.0,-9999.0,'1111122,1111122,1111122' 
ENP,ioos.station.NOAA.NDBC:WRBF1:1,2017-03-11T12:00:00Z,25.0720,-80.7350,1.0,7.7,340.0,-9999.0,'1111122,1111122,1111122' 
ENP,ioos.station.NOAA.NDBC:WRBF1:1,2017-03-11T13:00:00Z,25.0720,-80.7350,1.0,6.7,350.0,-9999.0,'1111122,1111122,1111122' 
ENP,ioos.station.NOAA.NDBC:WRBF1:1,2017-03-11T14:00:00Z,25.0720,-80.7350,1.0,5.1,350.0,-9999.0,'1111122,1111122,1111122' 
ENP,ioos.station.NOAA.NDBC:WRBF1:1,2017-03-11T15:00:00Z,25.0720,-80.7350,1.0,4.6,360.0,-9999.0,'1111122,1111122,1111122' 
ENP,ioos.station.NOAA.NDBC:WRBF1:1,2017-03-11T16:00:00Z,25.0720,-80.7350,1.0,4.6,20.0,-9999.0,'1111122,1111122,1111122' 
ENP,ioos.station.NOAA.NDBC:WRBF1:1,2017-03-11T17:00:00Z,25.0720,-80.7350,1.0,2.6,50.0,-9999.0,'1111122,1111122,1111122' 
ENP,ioos.station.NOAA.NDBC:WRBF1:1,2017-03-11T18:00:00Z,25.0720,-80.7350,1.0,1.0,60.0,-9999.0,'1111122,1111122,1111122' 
ENP,ioos.station.NOAA.NDBC:WRBF1:1,2017-03-11T19:00:00Z,25.0720,-80.7350,1.0,1.0,60.0,-9999.0,'1111122,1111122,1111122' 
ENP,ioos.station.NOAA.NDBC:WRBF1:1,2017-03-11T20:00:00Z,25.0720,-80.7350,1.0,1.5,80.0,-9999.0,'1111122,1111122,1111122' 
ENP,ioos.station.NOAA.NDBC:WRBF1:1,2017-03-11T21:00:00Z,25.0720,-80.7350,1.0,2.1,90.0,-9999.0,'1111122,1111122,1111122' 
ENP,ioos.station.NOAA.NDBC:WRBF1:1,2017-03-11T22:00:00Z,25.0720,-80.7350,1.0,2.1,80.0,-9999.0,'1111122,1111122,1111122' 
ENP,ioos.station.NOAA.NDBC:WRBF1:1,2017-03-11T23:00:00Z,25.0720,-80.7350,1.0,4.1,70.0,-9999.0,'1111122,1111122,1111122' 
ENP,ioos.station.NOAA.NDBC:WRBF1:1,2017-03-12T00:00:00Z,25.0720,-80.7350,1.0,3.6,70.0,-9999.0,'1111122,1111122,1111122' 
ENP,ioos.station.NOAA.NDBC:WRBF1:1,2017-03-12T01:00:00Z,25.0720,-80.7350,1.0,3.6,70.0,-9999.0,'1111122,1111122,1111122' 
ENP,ioos.station.NOAA.NDBC:WRBF1:1,2017-03-12T04:00:00Z,25.0720,-80.7350,1.0,3.6,40.0,-9999.0,'1111122,1111122,1111122' 
ENP,ioos.station.NOAA.NDBC:WRBF1:1,2017-03-12T12:00:00Z,25.0720,-80.7350,1.0,1.0,130.0,-9999.0,'1111122,1111122,1111122' 
ENP,ioos.station.NOAA.NDBC:WRBF1:1,2017-03-12T13:00:00Z,25.0720,-80.7350,1.0,1.0,150.0,-9999.0,'1111122,1111122,1111122' 
ENP,ioos.station.NOAA.NDBC:WRBF1:1,2017-03-12T14:00:00Z,25.0720,-80.7350,1.0,4.1,40.0,-9999.0,'1111122,1111122,1111122' 
ENP,ioos.station.NOAA.NDBC:WRBF1:1,2017-03-12T15:00:00Z,25.0720,-80.7350,1.0,5.1,70.0,-9999.0,'1111122,1111122,1111122' 
ENP,ioos.station.NOAA.NDBC:WRBF1:1,2017-03-12T16:00:00Z,25.0720,-80.7350,1.0,3.6,60.0,-9999.0,'1111122,1111122,1111122' 
ENP,ioos.station.NOAA.NDBC:WRBF1:1,2017-03-12T17:00:00Z,25.0720,-80.7350,1.0,0.5,260.0,-9999.0,'1111122,1111122,1111122' 